Location: Acequia del Cap
(41.7000°N, 0.6167°E)
Time: 00:58:53
(UTC+00:00)

Lacrosse 4 Rocket - Pass Details

Date: 07 August 2020
Orbit: 544 x 615 km, 68.0° (Epoch: 22 September)

Event Time Altitude Azimuth Distance (km) Brightness Sun altitude
Exits shadow 00:12:58 24° 22° (NNE) 1,213 3.6 -31.9°
Drops below altitude 10° 00:14:43 10° 25° (NNE) 1,885 4.8 -31.9°
Sets 00:16:55 0° 27° (NNE) 2,775 5.8 -31.9°
